Regional Weather Roundup
Issued by NWS

Home | Current Version | Previous Version | Graphics & Text | Print | Product List | Glossary Off
Versions: 1 2 3 4 5 6 7 8 9 10 11 12 13 14 15 16 17 18 19 20 21 22 23 24 25 26 27 28 29 30 31 32 33 34 35 36 37 38 39 40 41 42 43 44 45 46 47 48 49 50

000
ASUS43 KLSX 210259
RWRMO

WEATHER SUMMARY FOR MISSOURI
NATIONAL WEATHER SERVICE SPRINGFIELD MO
1000 PM CDT MON APR 20 2015

NOTE: "FAIR" INDICATES FEW OR NO CLOUDS BELOW 12,000 FEET WITH NO
       SIGNIFICANT WEATHER AND/OR OBSTRUCTIONS TO VISIBILITY.
       CURRENT SKY AND/OR WEATHER CONDITIONS ARE NOT AVAILABLE FOR
       CHILLICOTHE AND FARMINGTON.

MOZ001>031-035>038-043-044-053-054-210400-
...NORTHERN AND WESTERN MISSOURI...

CITY           SKY/WX    TMP DP  RH WIND       PRES   REMARKS
KANSAS CTY INT MOCLDY    47  29  49 SW8       29.85R
KANSAS C DTWN  CLOUDY    53  27  36 W3        29.85R
LEE`S SUMMIT   PTCLDY    49  28  44 SW6       29.86R
ST JOSEPH      CLEAR     47  30  51 W8        29.84R
CHILLICOTHE      N/A     48  28  46 CALM      29.82R
KIRKSVILLE     CLEAR     46  26  45 SW7       29.78R

$$
MOZ066>068-077>081-088>096-101>105-210400-
...SOUTHWEST MISSOURI...

CITY           SKY/WX    TMP DP  RH WIND       PRES   REMARKS
SPRINGFIELD    CLEAR     43  32  65 SW6       29.92R
JOPLIN         CLEAR     48  35  60 S5        29.94R

$$
MOZ032>034-039>042-045>050-055>058-069>072-210400-
...CENTRAL MISSOURI...

CITY           SKY/WX    TMP DP  RH WIND       PRES   REMARKS
COLUMBIA       CLEAR     44  29  55 SW8       29.85R
JEFFERSON CITY FAIR      47  28  47 CALM      29.86R
ROLLA          CLEAR     43  28  55 SW6       29.86R
SEDALIA        CLEAR     48  30  49 SW8       29.87R
OSAGE BEACH    CLEAR     48  23  37 SW3       29.89R

$$
MOZ051-052-059>065-210400-
...EAST CENTRAL MISSOURI...

CITY           SKY/WX    TMP DP  RH WIND       PRES   REMARKS
ST LOUIS INTL  PTCLDY    50  31  48 W7        29.85R
SPIRIT OF STL  CLEAR     47  32  56 SW8       29.84R
ST CHARLES     CLEAR     47  34  60 SW8       29.83R

$$
MOZ072>076-082>087-097>100-106>115-210400-
...SOUTH CENTRAL AND SOUTHEAST MISSOURI...

CITY           SKY/WX    TMP DP  RH WIND       PRES   REMARKS
CAPE GIRARDEAU PTCLDY    49  43  80 W6        29.89R
FARMINGTON     PTCLDY    48  30  49 W3        29.91R
POPLAR BLUFF   CLEAR     55  30  38 W7        29.91R
WEST PLAINS    CLEAR     46  30  53 SW3       29.94R

$$



USA.gov is the U.S. government's official web portal to all federal, state and local government web resources and services.